Location: Fontevrault
(47.1823°N, 0.0493°E)
Time: 18:06:50
(UTC+00:00)

Cosmos 1725 Rocket - Pass Details

Date: 29 October 2021
Orbit: 961 x 991 km, 82.9° (Epoch: 27 November)

Event Time Altitude Azimuth Distance (km) Brightness Sun altitude
Rises 21:27:08 0° 245° (WSW) 3,659 7.3 -46.1°
Reaches altitude 10° 21:31:03 10° 270° (W) 2,712 6.7 -46.7°
Maximum altitude 21:34:13 14° 301° (WNW) 2,415 6.5 -47.1°
Drops below altitude 10° 21:37:23 10° 332° (NNW) 2,712 6.8 -47.5°
Sets 21:41:20 0° 357° (N) 3,661 7.4 -48.0°
